Flag for U.S.A. Weather past 2 weeks in Lincoln, Nebraska, U.S.A.

Now
63 °F

Sunny.


Feels Like: 63 °F
Forecast: 47 / 75 °F
Wind: 8 mph from East

Location: Lincoln Municipal Airport

Current Time: Oct 25, 2014 at 11:57:35 AM

Latest Report: Oct 25, 2014 at 10:54 AM


Visibility: 10 mi

Pressure: 30.12 "Hg

Humidity: 54%

Dew point: 46 °F

Location of LincolnLocation

Historic Weather in Lincoln — Graph

°F

Lincoln temperature yesterday

Maximum temperature yesterday: 76 °F (at 4:54 PM)
Minimum temperature yesterday: 53 °F (at 12:54 AM)
Average temperature yesterday: 63 °F

Past Weeks' High & Low Weather Summary

 TemperatureHumidityPressure
High80 °F (Oct 22, 3:54 PM)100% (Oct 23, 6:54 AM)31.00 "Hg (Oct 23, 6:54 AM)
Low30 °F (Oct 11, 7:54 AM)23% (Oct 16, 3:57 PM)29.67 "Hg (Oct 12, 3:54 PM)
Average55 °F66%30.01 "Hg
* Reported Oct 10 10:54 AM — Oct 25 10:54 AM, Lincoln, Weather by CustomWeather, © 2014

Note: Actual official high and low records may vary slightly from our data, if they occured in-between our weather recording intervals... More about our weather records

Advertising

Lincoln weather history for previous 24 hours

 ConditionsComfort  
Time TempWeatherWind HumidityBarometerVisibility
10:54 AM
Oct 25
63 °FSunny.8 mph54%30.12 "Hg10 mi
9:54 AM56 °FSunny.5 mph77%30.12 "Hg10 mi
8:54 AM48 °FSunny.5 mph86%30.12 "Hg9 mi
7:54 AM45 °FClear.6 mph90%30.10 "Hg9 mi
6:54 AM44 °FClear.No wind89%30.08 "Hg9 mi
5:54 AM46 °FClear.3 mph89%30.06 "Hg9 mi
4:54 AM44 °FClear.6 mph93%30.05 "Hg9 mi
3:54 AM46 °FClear.No wind96%30.04 "Hg7 mi
2:54 AM48 °FClear.5 mph89%30.03 "Hg9 mi
1:54 AM48 °FClear.3 mph89%30.02 "Hg10 mi
12:54 AM50 °FClear.No wind93%30.01 "Hg10 mi
11:54 PM
Oct 24
53 °FClear.5 mph86%30.02 "Hg9 mi
10:54 PM54 °FClear.5 mph86%30.01 "Hg10 mi
9:54 PM57 °FClear.3 mph81%30.00 "Hg10 mi
8:54 PM57 °FClear.8 mph87%29.97 "Hg10 mi
7:54 PM62 °FClear.No wind73%29.96 "Hg10 mi
6:54 PM63 °FSunny.5 mph73%29.94 "Hg10 mi
5:54 PM75 °FSunny.3 mph50%29.90 "Hg10 mi
4:54 PM76 °FSunny.3 mph50%29.90 "Hg10 mi
3:54 PM74 °FSunny.6 mph56%29.89 "Hg10 mi
2:54 PM74 °FSunny.9 mph56%29.89 "Hg10 mi
1:54 PM72 °FSunny.8 mph59%29.91 "Hg9 mi
12:54 PM71 °FSunny.9 mph61%29.93 "Hg8 mi
11:54 AM68 °FSunny.9 mph73%29.94 "Hg7 mi
Weather by CustomWeather, © 2014

See weather overviewHow to use our weather pages